| time (UTC) | temp F | wind direction | speed knots | gust knots | rain 1hr in | rain 24hr in | rain mn in | humidity % | barometer mb |
| 20260504205008 | 77 | 210 | 2.6 | 7.0 | 0.00 | 0.00 | 0.00 | 33 | 1014.5 |
| 20260504204514 | 77 | 182 | 1.7 | 7.8 | 0.00 | 0.00 | 0.00 | 33 | 1014.5 |
| 20260504204009 | 77 | 250 | 3.5 | 7.8 | 0.00 | 0.00 | 0.00 | 33 | 1014.6 |
| 20260504203506 | 78 | 278 | 4.3 | 7.8 | 0.00 | 0.00 | 0.00 | 34 | 1014.6 |
| 20260504203022 | 78 | 268 | 3.5 | 6.1 | 0.00 | 0.00 | 0.00 | 37 | 1014.8 |
| 20260504202507 | 77 | 32 | 0.0 | 4.3 | 0.00 | 0.00 | 0.00 | 36 | 1014.9 |
| 20260504202003 | 77 | 324 | 1.7 | 4.3 | 0.00 | 0.00 | 0.00 | 34 | 1014.9 |
| 20260504201505 | 77 | 230 | 0.9 | 6.1 | 0.00 | 0.00 | 0.00 | 34 | 1015.0 |
| 20260504201005 | 77 | 154 | 2.6 | 7.8 | 0.00 | 0.00 | 0.00 | 34 | 1015.1 |
| 20260504200505 | 77 | 248 | 3.5 | 7.8 | 0.00 | 0.00 | 0.00 | 35 | 1015.1 |
| 20260504200006 | 77 | 158 | 3.5 | 6.1 | 0.00 | 0.00 | 0.00 | 34 | 1015.2 |
| 20260504195506 | 76 | 180 | 2.6 | 7.0 | 0.00 | 0.00 | 0.00 | 36 | 1015.3 |
| 20260504195003 | 76 | 225 | 2.6 | 7.8 | 0.00 | 0.00 | 0.00 | 36 | 1015.3 |
| 20260504194505 | 76 | 245 | 3.5 | 7.8 | 0.00 | 0.00 | 0.00 | 38 | 1015.4 |
| 20260504194003 | 77 | 194 | 3.5 | 7.0 | 0.00 | 0.00 | 0.00 | 34 | 1015.3 |
| 20260504193504 | 77 | 303 | 0.9 | 7.0 | 0.00 | 0.00 | 0.00 | 38 | 1015.4 |
| 20260504193004 | 77 | 236 | 2.6 | 7.0 | 0.00 | 0.00 | 0.00 | 37 | 1015.5 |
| 20260504192503 | 77 | 254 | 1.7 | 7.0 | 0.00 | 0.00 | 0.00 | 38 | 1015.5 |
| 20260504192003 | 77 | 182 | 3.5 | 7.0 | 0.00 | 0.00 | 0.00 | 40 | 1015.5 |
| 20260504191505 | 76 | 269 | 0.0 | 6.1 | 0.00 | 0.00 | 0.00 | 40 | 1015.6 |
| 20260504191006 | 76 | 211 | 2.6 | 6.1 | 0.00 | 0.00 | 0.00 | 38 | 1015.8 |
| 20260504190504 | 76 | 256 | 2.6 | 8.7 | 0.00 | 0.00 | 0.00 | 39 | 1015.9 |
| 20260504190006 | 76 | 234 | 5.2 | 8.7 | 0.00 | 0.00 | 0.00 | 38 | 1015.9 |
| 20260504185503 | 76 | 196 | 2.6 | 6.1 | 0.00 | 0.00 | 0.00 | 41 | 1015.9 |
| 20260504185003 | 76 | 258 | 1.7 | 7.8 | 0.00 | 0.00 | 0.00 | 42 | 1016.0 |
| 20260504184504 | 76 | 244 | 4.3 | 7.8 | 0.00 | 0.00 | 0.00 | 40 | 1016.1 |
| 20260504184002 | 76 | 273 | 3.5 | 7.0 | 0.00 | 0.00 | 0.00 | 39 | 1016.1 |
| 20260504183502 | 76 | 262 | 2.6 | 7.0 | 0.00 | 0.00 | 0.00 | 41 | 1016.2 |
| 20260504183008 | 75 | 288 | 4.3 | 6.1 | 0.00 | 0.00 | 0.00 | 39 | 1016.3 |
| 20260504182503 | 75 | 42 | 2.6 | 7.8 | 0.00 | 0.00 | 0.00 | 38 | 1016.2 |
| 20260504182003 | 75 | 265 | 5.2 | 7.8 | 0.00 | 0.00 | 0.00 | 39 | 1016.4 |
| 20260504181508 | 75 | 16 | 3.5 | 6.1 | 0.00 | 0.00 | 0.00 | 35 | 1016.4 |
| 20260504181003 | 75 | 57 | 0.0 | 3.5 | 0.00 | 0.00 | 0.00 | 38 | 1016.4 |
| 20260504180503 | 76 | 168 | 0.9 | 5.2 | 0.00 | 0.00 | 0.00 | 35 | 1016.7 |
| 20260504180005 | 76 | 296 | 2.6 | 5.2 | 0.00 | 0.00 | 0.00 | 37 | 1016.8 |
| 20260504175504 | 76 | 209 | 2.6 | 5.2 | 0.00 | 0.00 | 0.00 | 40 | 1016.8 |
| 20260504175003 | 75 | 258 | 1.7 | 6.1 | 0.00 | 0.00 | 0.00 | 42 | 1016.8 |
| 20260504174508 | 74 | 126 | 1.7 | 6.1 | 0.00 | 0.00 | 0.00 | 44 | 1016.8 |
| 20260504174003 | 74 | 196 | 2.6 | 6.1 | 0.00 | 0.00 | 0.00 | 39 | 1017.0 |
| 20260504173503 | 74 | 219 | 3.5 | 5.2 | 0.00 | 0.00 | 0.00 | 39 | 1017.0 |
| 20260504173011 | 74 | 10 | 0.9 | 6.1 | 0.00 | 0.00 | 0.00 | 43 | 1017.0 |
| 20260504172502 | 73 | 275 | 2.6 | 6.1 | 0.00 | 0.00 | 0.00 | 44 | 1017.1 |
| 20260504172002 | 73 | 284 | 1.7 | 5.2 | 0.00 | 0.00 | 0.00 | 41 | 1017.1 |
| 20260504171513 | 73 | 189 | 2.6 | 5.2 | 0.00 | 0.00 | 0.00 | 43 | 1017.1 |
| 20260504171006 | 73 | 239 | 1.7 | 3.5 | 0.00 | 0.00 | 0.00 | 41 | 1017.1 |
| 20260504170506 | 72 | 230 | 1.7 | 7.0 | 0.00 | 0.00 | 0.00 | 42 | 1017.2 |
| 20260504151005 | 69 | 252 | 3.5 | 6.1 | 0.00 | 0.00 | 0.00 | 46 | 1018.2 |
| 20260504150504 | 68 | 284 | 1.7 | 6.1 | 0.00 | 0.00 | 0.00 | 50 | 1018.2 |
| 20260504141009 | 65 | 246 | 2.6 | 4.3 | 0.00 | 0.00 | 0.00 | 52 | 1018.5 |
| 20260504140504 | 64 | 220 | 2.6 | 7.0 | 0.00 | 0.00 | 0.00 | 52 | 1018.5 |
| 20260504130511 | 53 | 206 | 0.0 | 1.7 | 0.00 | 0.00 | 0.00 | 90 | 1018.3 |
| 20260504110511 | 41 | 336 | 0.0 | 0.9 | 0.00 | 0.00 | 0.00 | 90 | 1018.1 |
| 20260504100506 | 41 | 336 | 0.0 | 0.0 | 0.00 | 0.00 | 0.00 | 89 | 1017.9 |
| 20260504081528 | 42 | 336 | 0.0 | 0.0 | 0.00 | 0.00 | 0.00 | 89 | 1017.7 |
| 20260504081009 | 42 | 336 | 0.0 | 0.0 | 0.00 | 0.00 | 0.00 | 89 | 1017.7 |
| 20260504080509 | 42 | 336 | 0.0 | 0.0 | 0.00 | 0.00 | 0.00 | 89 | 1017.8 |
| 20260504050513 | 45 | 336 | 0.0 | 0.9 | 0.00 | 0.00 | 0.00 | 86 | 1018.7 |
| 20260504050014 | 45 | 336 | 0.0 | 0.0 | 0.00 | 0.00 | 0.00 | 86 | 1018.7 |
| 20260504045503 | 46 | 336 | 0.0 | 0.0 | 0.00 | 0.00 | 0.00 | 85 | 1018.7 |
| 20260504045009 | 46 | 336 | 0.0 | 0.0 | 0.00 | 0.00 | 0.00 | 85 | 1018.8 |
| 20260504044525 | 46 | 336 | 0.0 | 1.7 | 0.00 | 0.00 | 0.00 | 85 | 1018.8 |
| 20260504044011 | 46 | 336 | 0.0 | 1.7 | 0.00 | 0.00 | 0.00 | 85 | 1018.8 |
| 20260504043507 | 46 | 336 | 0.0 | 0.0 | 0.00 | 0.00 | 0.00 | 85 | 1018.7 |
| 20260504043024 | 46 | 336 | 0.0 | 0.0 | 0.00 | 0.00 | 0.00 | 85 | 1018.8 |
| 20260504042509 | 46 | 336 | 0.0 | 0.0 | 0.00 | 0.00 | 0.00 | 84 | 1018.9 |
| 20260504042007 | 47 | 336 | 0.0 | 0.0 | 0.00 | 0.00 | 0.00 | 84 | 1018.9 |
| 20260504041521 | 47 | 336 | 0.0 | 0.0 | 0.00 | 0.00 | 0.00 | 84 | 1018.9 |
| 20260504041006 | 47 | 336 | 0.0 | 0.0 | 0.00 | 0.00 | 0.00 | 84 | 1019.0 |
| 20260504040507 | 47 | 336 | 0.0 | 0.0 | 0.00 | 0.00 | 0.00 | 84 | 1019.2 |
| 20260504040035 | 47 | 336 | 0.0 | 0.0 | 0.00 | 0.00 | 0.00 | 84 | 1019.1 |
| 20260504035510 | 47 | 336 | 0.0 | 0.0 | 0.00 | 0.00 | 0.00 | 84 | 1019.0 |
| 20260504035010 | 47 | 336 | 0.0 | 0.0 | 0.00 | 0.00 | 0.00 | 83 | 1019.0 |
| 20260504034514 | 48 | 336 | 0.0 | 0.0 | 0.00 | 0.00 | 0.00 | 83 | 1019.1 |
| 20260504034007 | 48 | 336 | 0.0 | 0.0 | 0.00 | 0.00 | 0.00 | 82 | 1019.0 |
| 20260504033507 | 48 | 336 | 0.0 | 0.0 | 0.00 | 0.00 | 0.00 | 82 | 1019.0 |
| 20260504033022 | 48 | 336 | 0.0 | 0.0 | 0.00 | 0.00 | 0.00 | 81 | 1019.1 |
| 20260504032507 | 48 | 336 | 0.0 | 0.0 | 0.00 | 0.00 | 0.00 | 81 | 1019.0 |
| 20260504032013 | 49 | 336 | 0.0 | 0.0 | 0.00 | 0.00 | 0.00 | 81 | 1019.1 |
| 20260504031516 | 49 | 336 | 0.0 | 0.0 | 0.00 | 0.00 | 0.00 | 80 | 1019.0 |
| 20260504031009 | 49 | 336 | 0.0 | 0.0 | 0.00 | 0.00 | 0.00 | 80 | 1019.0 |
| 20260504030507 | 49 | 336 | 0.0 | 0.0 | 0.00 | 0.00 | 0.00 | 79 | 1018.9 |
| 20260504030025 | 49 | 336 | 0.0 | 0.0 | 0.00 | 0.00 | 0.00 | 79 | 1019.0 |
| 20260504025508 | 50 | 336 | 0.0 | 0.0 | 0.00 | 0.00 | 0.00 | 78 | 1018.9 |
| 20260504025009 | 50 | 336 | 0.0 | 0.0 | 0.00 | 0.00 | 0.00 | 77 | 1018.9 |
| 20260504024524 | 50 | 336 | 0.0 | 0.0 | 0.00 | 0.00 | 0.00 | 77 | 1018.9 |
| 20260504024013 | 50 | 336 | 0.0 | 0.0 | 0.00 | 0.00 | 0.00 | 77 | 1018.9 |
| 20260504023511 | 51 | 336 | 0.0 | 0.0 | 0.00 | 0.00 | 0.00 | 76 | 1018.8 |
| 20260504023020 | 51 | 336 | 0.0 | 0.0 | 0.00 | 0.00 | 0.00 | 76 | 1018.8 |
| 20260504022509 | 51 | 336 | 0.0 | 0.0 | 0.00 | 0.00 | 0.00 | 76 | 1018.6 |
| 20260504022011 | 51 | 336 | 0.0 | 0.0 | 0.00 | 0.00 | 0.00 | 75 | 1018.7 |
| 20260504021520 | 52 | 336 | 0.0 | 0.0 | 0.00 | 0.00 | 0.00 | 75 | 1018.6 |
| 20260504021008 | 52 | 336 | 0.0 | 0.0 | 0.00 | 0.00 | 0.00 | 74 | 1018.5 |
| 20260504020509 | 52 | 336 | 0.0 | 0.9 | 0.00 | 0.00 | 0.00 | 74 | 1018.5 |
| 20260504020023 | 52 | 336 | 0.0 | 1.7 | 0.00 | 0.00 | 0.00 | 74 | 1018.4 |
| 20260504015511 | 52 | 336 | 0.0 | 1.7 | 0.00 | 0.00 | 0.00 | 74 | 1018.3 |
| 20260504015013 | 53 | 336 | 0.0 | 0.0 | 0.00 | 0.00 | 0.00 | 71 | 1018.2 |
| 20260504014525 | 54 | 336 | 0.0 | 0.9 | 0.00 | 0.00 | 0.00 | 70 | 1018.2 |
| 20260504014008 | 54 | 336 | 0.0 | 1.7 | 0.00 | 0.00 | 0.00 | 70 | 1018.2 |
| 20260504013509 | 54 | 336 | 0.0 | 1.7 | 0.00 | 0.00 | 0.00 | 69 | 1018.2 |
| 20260504013021 | 55 | 336 | 0.0 | 1.7 | 0.00 | 0.00 | 0.00 | 65 | 1018.2 |
| 20260504012510 | 56 | 336 | 0.0 | 1.7 | 0.00 | 0.00 | 0.00 | 65 | 1018.1 |
| 20260504012008 | 57 | 336 | 0.0 | 0.9 | 0.00 | 0.00 | 0.00 | 63 | 1018.0 |
| 20260504011525 | 57 | 336 | 0.0 | 0.0 | 0.00 | 0.00 | 0.00 | 61 | 1018.0 |
| 20260504011010 | 58 | 336 | 0.0 | 0.9 | 0.00 | 0.00 | 0.00 | 61 | 1018.0 |
| 20260504010507 | 58 | 336 | 0.0 | 0.9 | 0.00 | 0.00 | 0.00 | 59 | 1017.8 |
| 20260504010028 | 59 | 336 | 0.0 | 0.0 | 0.00 | 0.00 | 0.00 | 58 | 1017.8 |
| 20260504005505 | 59 | 336 | 0.0 | 0.0 | 0.00 | 0.00 | 0.00 | 58 | 1017.7 |
| 20260504005003 | 60 | 336 | 0.0 | 0.0 | 0.00 | 0.00 | 0.00 | 56 | 1017.7 |
| 20260504004521 | 60 | 336 | 0.0 | 0.0 | 0.00 | 0.00 | 0.00 | 55 | 1017.6 |
| 20260504004006 | 60 | 336 | 0.0 | 1.7 | 0.00 | 0.00 | 0.00 | 54 | 1017.6 |
| 20260504003510 | 61 | 336 | 0.0 | 1.7 | 0.00 | 0.00 | 0.00 | 54 | 1017.6 |
| 20260504003008 | 61 | 336 | 0.0 | 0.0 | 0.00 | 0.00 | 0.00 | 53 | 1017.4 |
| 20260504002503 | 62 | 336 | 0.0 | 0.9 | 0.00 | 0.00 | 0.00 | 52 | 1017.5 |
| 20260504002006 | 62 | 336 | 0.0 | 0.9 | 0.00 | 0.00 | 0.00 | 49 | 1017.4 |
| 20260504001507 | 63 | 336 | 0.0 | 1.7 | 0.00 | 0.00 | 0.00 | 48 | 1017.5 |
| 20260504001003 | 63 | 336 | 0.0 | 1.7 | 0.00 | 0.00 | 0.00 | 46 | 1017.5 |
| 20260504000505 | 64 | 336 | 0.0 | 1.7 | 0.00 | 0.00 | 0.00 | 47 | 1017.5 |
| 20260504000005 | 64 | 336 | 0.0 | 1.7 | 0.00 | 0.00 | 0.00 | 46 | 1017.4 |
| 20260503235503 | 64 | 336 | 0.0 | 1.7 | 0.00 | 0.00 | 0.00 | 44 | 1017.3 |
| 20260503235005 | 64 | 336 | 0.0 | 1.7 | 0.00 | 0.00 | 0.00 | 42 | 1017.4 |
| 20260503234505 | 65 | 336 | 0.0 | 2.6 | 0.00 | 0.00 | 0.00 | 42 | 1017.4 |
| 20260503234006 | 65 | 336 | 0.9 | 4.3 | 0.00 | 0.00 | 0.00 | 41 | 1017.4 |
| 20260503233502 | 65 | 311 | 0.9 | 4.3 | 0.00 | 0.00 | 0.00 | 41 | 1017.4 |
| 20260503233021 | 65 | 305 | 0.9 | 4.3 | 0.00 | 0.00 | 0.00 | 40 | 1017.4 |
| 20260503232507 | 65 | 332 | 1.7 | 4.3 | 0.00 | 0.00 | 0.00 | 39 | 1017.5 |
| 20260503232005 | 65 | 336 | 0.0 | 4.3 | 0.00 | 0.00 | 0.00 | 42 | 1017.5 |
| 20260503231505 | 65 | 24 | 1.7 | 5.2 | 0.00 | 0.00 | 0.00 | 40 | 1017.5 |
| 20260503231003 | 66 | 262 | 2.6 | 5.2 | 0.00 | 0.00 | 0.00 | 38 | 1017.4 |
| 20260503230504 | 66 | 249 | 2.6 | 5.2 | 0.00 | 0.00 | 0.00 | 40 | 1017.5 |
| 20260503230005 | 66 | 326 | 2.6 | 6.1 | 0.00 | 0.00 | 0.00 | 38 | 1017.5 |
| 20260503225503 | 66 | 298 | 0.9 | 7.0 | 0.00 | 0.00 | 0.00 | 37 | 1017.5 |
| 20260503225007 | 66 | 331 | 3.5 | 7.0 | 0.00 | 0.00 | 0.00 | 36 | 1017.6 |
| 20260503224515 | 66 | 266 | 1.7 | 5.2 | 0.00 | 0.00 | 0.00 | 36 | 1017.6 |
| 20260503224003 | 67 | 23 | 0.9 | 7.0 | 0.00 | 0.00 | 0.00 | 33 | 1017.6 |
| 20260503223503 | 67 | 328 | 1.7 | 7.8 | 0.00 | 0.00 | 0.00 | 34 | 1017.6 |
| 20260503223022 | 67 | 331 | 4.3 | 7.8 | 0.00 | 0.00 | 0.00 | 34 | 1017.6 |
| 20260503222503 | 68 | 334 | 3.5 | 7.8 | 0.00 | 0.00 | 0.00 | 33 | 1017.6 |
| 20260503222006 | 68 | 23 | 4.3 | 7.8 | 0.00 | 0.00 | 0.00 | 32 | 1017.7 |
| 20260503221504 | 68 | 291 | 1.7 | 7.0 | 0.00 | 0.00 | 0.00 | 32 | 1017.6 |
| 20260503221006 | 68 | 316 | 2.6 | 7.8 | 0.00 | 0.00 | 0.00 | 32 | 1017.6 |
| 20260503220504 | 68 | 315 | 2.6 | 7.8 | 0.00 | 0.00 | 0.00 | 34 | 1017.6 |
| 20260503220005 | 68 | 261 | 2.6 | 7.8 | 0.00 | 0.00 | 0.00 | 34 | 1017.6 |
| 20260503215506 | 68 | 343 | 3.5 | 7.8 | 0.00 | 0.00 | 0.00 | 34 | 1017.6 |
| 20260503215002 | 68 | 322 | 4.3 | 7.8 | 0.00 | 0.00 | 0.00 | 33 | 1017.6 |
| 20260503214513 | 68 | 340 | 2.6 | 7.8 | 0.00 | 0.00 | 0.00 | 34 | 1017.8 |
| 20260503214003 | 68 | 360 | 2.6 | 7.8 | 0.00 | 0.00 | 0.00 | 34 | 1017.8 |
| 20260503213502 | 68 | 319 | 4.3 | 7.8 | 0.00 | 0.00 | 0.00 | 34 | 1017.7 |
| 20260503213008 | 68 | 351 | 2.6 | 7.0 | 0.00 | 0.00 | 0.00 | 36 | 1017.8 |
| 20260503212503 | 68 | 22 | 3.5 | 7.0 | 0.00 | 0.00 | 0.00 | 33 | 1017.9 |
| 20260503212008 | 68 | 335 | 3.5 | 9.6 | 0.00 | 0.00 | 0.00 | 33 | 1017.9 |
| 20260503211518 | 68 | 360 | 4.3 | 9.6 | 0.00 | 0.00 | 0.00 | 33 | 1017.9 |
| 20260503211011 | 68 | 262 | 1.7 | 9.6 | 0.00 | 0.00 | 0.00 | 34 | 1017.9 |
| 20260503210510 | 68 | 344 | 4.3 | 9.6 | 0.00 | 0.00 | 0.00 | 35 | 1018.0 |
| 20260503210016 | 68 | 314 | 4.3 | 7.8 | 0.00 | 0.00 | 0.00 | 35 | 1017.9 |
| 20260503205505 | 68 | 294 | 1.7 | 7.8 | 0.00 | 0.00 | 0.00 | 36 | 1018.0 |